Home   Weather   Le Havre   Past weeks

Flag for France Past Weather in Le Havre, Upper Normandy, France — Yesterday and Last 2 Weeks

Now
25 °F

Clear.


Feels Like: 17 °F
Forecast: 22 / 35 °F
Wind: 7 mph from East

Location: La Heve

Current Time: Jan 20, 2017 at 8:57:26 am

Latest Report: Jan 20, 2017 at 8:00 am


Visibility: 10 mi

Pressure: 30.45 "Hg

Humidity: 80%

Dew Point: 19 °F

Location of Le HavreLocation

Past Weather in Le Havre — Graph

°F

Le Havre Temperature Yesterday

Maximum temperature yesterday: 37 °F (at 2:00 pm)
Minimum temperature yesterday: 27 °F (at 8:30 am)
Average temperature yesterday: 31 °F

High & Low Weather Summary for the Past Weeks

 TemperatureHumidityPressure
High50 °F (Jan 8, 12:30 pm)100% (Jan 5, 9:30 pm)30.69 "Hg (Jan 5, 9:30 pm)
Low25 °F (Jan 18, 5:00 am)52% (Jan 18, 2:30 pm)29.18 "Hg (Jan 12, 6:30 pm)
Average40 °F85%30.31 "Hg
* Reported Jan 5 7:00 am — Jan 20 7:30 am, Le Havre, Weather by CustomWeather, © 2017

Note: Actual official high and low records may vary slightly from our data, if they occured in-between our weather recording intervals... More about our weather records

Advertising

Le Havre Weather History for the Previous 24 Hours

Scroll right to see more
 ConditionsComfort  
Time TempWeatherWind HumidityBarometerVisibility
7:30 am
Fri, Jan 20
25 °FClear.8 mph80%30.45 "Hg10 mi
7:00 am27 °FClear.8 mph74%30.45 "Hg10 mi
6:30 am25 °FClear.7 mph80%30.45 "Hg10 mi
6:00 am25 °FClear.7 mph80%30.45 "Hg10 mi
5:30 am27 °FClear.5 mph80%30.45 "Hg10 mi
5:00 am27 °FClear.6 mph80%30.45 "Hg10 mi
4:30 am27 °FClear.7 mph80%30.48 "Hg10 mi
4:00 am27 °FClear.7 mph80%30.48 "Hg10 mi
3:30 am27 °FClear.7 mph80%30.48 "Hg10 mi
3:00 am27 °FClear.7 mph80%30.48 "Hg10 mi
2:30 am27 °FClear.6 mph80%30.48 "Hg6 mi
2:00 am27 °FClear.5 mph80%30.48 "Hg6 mi
1:30 am27 °FClear.3 mph80%30.48 "Hg6 mi
1:00 am28 °FClear.6 mph74%30.48 "Hg10 mi
12:30 am28 °FClear.7 mph80%30.51 "Hg6 mi
12:00 am28 °FClear.7 mph80%30.51 "Hg5 mi
11:30 pm
Thu, Jan 19
28 °FClear.7 mph80%30.51 "Hg6 mi
11:00 pm28 °FClear.8 mph80%30.51 "Hg10 mi
10:30 pm30 °FClear.9 mph75%30.51 "Hg10 mi
10:00 pm30 °FClear.9 mph75%30.51 "Hg10 mi
9:30 pm32 °FClear.9 mph69%30.51 "Hg10 mi
9:00 pm32 °FClear.12 mph75%30.51 "Hg6 mi
8:30 pm32 °FClear.10 mph75%30.51 "Hg10 mi
8:00 pm32 °FClear.9 mph75%30.48 "Hg6 mi
7:30 pm32 °FClear.9 mph75%30.48 "Hg6 mi
7:00 pm32 °FClear.8 mph80%30.48 "Hg10 mi
6:30 pm34 °FClear.12 mph70%30.48 "Hg10 mi
6:00 pm34 °FClear.12 mph70%30.48 "Hg10 mi
5:30 pm34 °FSunny.10 mph70%30.48 "Hg10 mi
5:00 pm36 °FSunny.10 mph65%30.48 "Hg10 mi
4:30 pm37 °FSunny.10 mph60%30.48 "Hg10 mi
4:00 pm37 °FSunny.13 mph56%30.48 "Hg10 mi
3:30 pm37 °FSunny.13 mph60%30.48 "Hg10 mi
3:00 pm37 °FSunny.12 mph56%30.48 "Hg10 mi
2:30 pm37 °FSunny.10 mph56%30.51 "Hg10 mi
2:00 pm37 °FPassing clouds.9 mph60%30.51 "HgN/A
1:30 pm36 °FPassing clouds.12 mph60%30.51 "HgN/A
1:00 pm36 °FSunny.12 mph56%30.51 "Hg10 mi
12:30 pm34 °FSunny.13 mph60%30.54 "Hg10 mi
12:00 pm34 °FSunny.12 mph60%30.54 "Hg10 mi
11:30 am32 °FSunny.10 mph60%30.54 "Hg10 mi
11:00 am32 °FSunny.12 mph60%30.54 "Hg10 mi
10:30 am32 °FSunny.12 mph60%30.54 "Hg10 mi
10:00 am30 °FSunny.12 mph64%30.54 "Hg10 mi
9:30 am28 °FSunny.9 mph69%30.51 "Hg10 mi
9:00 am27 °FSunny.9 mph74%30.51 "Hg10 mi
8:30 am27 °FClear.7 mph74%30.51 "Hg10 mi
8:00 am28 °FClear.8 mph69%30.54 "Hg10 mi
Weather by CustomWeather, © 2017

See weather overviewHow to use our weather pages